Tonopah, NV

1:30 AM PDT on September 30, 2016 (GMT -0700)
Tonopah

Weather History for KTPH - November, 2012

Change the Weather History Date:

Friday, November 2, 2012

  Actual Average Record
Temperature  
Mean Temperature 51 °F 46 °F  
Max Temperature 64 °F 61 °F 74 °F (2010)
Min Temperature 38 °F 31 °F 15 °F (2002)
Degree Days  
Heating Degree Days 14 19  
Month to date heating degree days 27 38  
Since 1 July heating degree days 322 510  
Cooling Degree Days 0 0  
Month to date cooling degree days 0 0  
Year to date cooling degree days 1004 783  
Growing Degree Days 1 (Base 50)    
Moisture  
Dew Point 25 °F    
Average Humidity 42    
Maximum Humidity 64    
Minimum Humidity 20    
Precipitation  
Precipitation 0.00 in 0.02 in 0.30 in (1957)
Month to date precipitation 0.00 0.03  
Year to date precipitation 5.76 4.52  
Sea Level Pressure  
Sea Level Pressure 30.04 in    
Wind  
Wind Speed 6 mph (North)    
Max Wind Speed 15 mph    
Max Gust Speed 17 mph    
Visibility 10 miles    
Events      
T = Trace of Precipitation, MM = Missing Value Source: NWS Daily Summary

Daily Weather History Graph

Daily Weather History Graph

Search for Another Location

Airport or City:

Trip Planner

Search our weather history database for the weather conditions in past years. The results will help you decide how hot, cold, wet, or windy it might be!

Date:

Astronomy

Nov. 02, 2012 Rise Set
Actual Time 7:15 AM PDT 5:47 PM PDT
Civil Twilight 6:48 AM PDT 6:14 PM PDT
Nautical Twilight 6:17 AM PDT 6:46 PM PDT
Astronomical Twilight 5:46 AM PDT 7:16 PM PDT
Moon 8:40 PM PDT (11/2) 10:37 AM PDT (11/2)
Length of Visible Light 11h 26m
Length of Day
10h 31m
Waning Gibbous, 86% of the Moon is Illuminated
Nov 2
Waning Gibbous
Nov 6
Last Quarter
Nov 13
New
Nov 20
First Quarter
Nov 28
Full

Hourly Weather History & Observations

Time (PDT) Temp. Windchill Dew Point Humidity Pressure Visibility Wind Dir Wind Speed Gust Speed Precip Events Conditions
12:56 AM 43.0 °F 38.8 °F 28.9 °F 58% 30.00 in 10.0 mi NNE 6.9 mph - N/A   Clear
1:56 AM 41.0 °F 34.7 °F 28.9 °F 62% 30.00 in 10.0 mi North 10.4 mph - N/A   Clear
2:56 AM 39.9 °F 34.5 °F 28.0 °F 63% 30.01 in 10.0 mi North 8.1 mph - N/A   Clear
3:56 AM 39.9 °F - 28.0 °F 63% 30.01 in 10.0 mi Calm Calm - N/A   Clear
4:56 AM 39.0 °F 32.8 °F 27.0 °F 62% 30.03 in 10.0 mi North 9.2 mph - N/A   Clear
5:56 AM 39.0 °F 31.4 °F 27.0 °F 62% 30.04 in 10.0 mi North 12.7 mph - N/A   Clear
6:56 AM 39.0 °F 31.8 °F 27.0 °F 62% 30.06 in 10.0 mi NNE 11.5 mph - N/A   Clear
7:56 AM 39.9 °F 32.9 °F 26.1 °F 58% 30.08 in 10.0 mi North 11.5 mph - N/A   Clear
8:56 AM 46.9 °F - 27.0 °F 46% 30.08 in 10.0 mi North 11.5 mph - N/A   Clear
9:56 AM 53.1 °F - 27.0 °F 37% 30.06 in 10.0 mi Calm Calm - N/A   Clear
10:56 AM 55.9 °F - 28.0 °F 34% 30.05 in 10.0 mi Calm Calm - N/A   Clear
11:56 AM 59.0 °F - 26.1 °F 28% 30.05 in 10.0 mi Variable 3.5 mph - N/A   Clear
12:56 PM 60.1 °F - 26.1 °F 27% 30.02 in 10.0 mi WSW 3.5 mph - N/A   Clear
1:56 PM 61.0 °F - 23.0 °F 23% 30.01 in 10.0 mi Calm Calm - N/A   Clear
2:56 PM 63.0 °F - 21.0 °F 20% 29.99 in 10.0 mi Calm Calm - N/A   Clear
3:56 PM 62.1 °F - 21.9 °F 21% 30.00 in 10.0 mi Calm Calm - N/A   Clear
4:56 PM 62.1 °F - 21.9 °F 21% 30.00 in 10.0 mi Calm Calm - N/A   Clear
5:56 PM 57.9 °F - 21.9 °F 25% 30.03 in 10.0 mi Calm Calm - N/A   Clear
6:56 PM 50.0 °F - 23.0 °F 35% 30.07 in 10.0 mi NW 6.9 mph - N/A   Clear
7:56 PM 46.9 °F - 21.9 °F 37% 30.08 in 10.0 mi North 6.9 mph - N/A   Clear
8:56 PM 45.0 °F 39.7 °F 21.0 °F 39% 30.08 in 10.0 mi North 10.4 mph - N/A   Clear
9:56 PM 45.0 °F 40.1 °F 21.0 °F 39% 30.07 in 10.0 mi North 9.2 mph - N/A   Clear
10:56 PM 44.1 °F 38.6 °F 21.9 °F 42% 30.07 in 10.0 mi North 10.4 mph - N/A   Clear
11:56 PM 44.1 °F 39.0 °F 21.9 °F 42% 30.06 in 10.0 mi North 9.2 mph - N/A   Clear